Weather Roundup
Issued by NWS

Home | Current Version | Previous Version | Graphics & Text | Print | Product List | Glossary Off
Versions: 1 2 3 4 5 6 7 8 9 10 11 12 13 14 15 16 17 18 19 20 21 22 23 24 25 26 27 28 29 30 31 32 33 34 35 36 37 38 39 40 41 42 43 44 45 46 47 48 49 50

000
NZUS93 KARX 201310
HRRWXR

CURRENT HOURLY OBSERVATIONS ACROSS
MUCH OF THE UPPER MISSISSIPPI VALLEY
NATIONAL WEATHER SERVICE LA CROSSE WI
700 AM CST MON NOV 20 2017


...SOUTHEAST MINNESOTA...


CITY           SKY/WX    TMP DP  RH WIND       PRES   REMARKS
ROCHESTER      CLOUDY    30  26  85 S14       29.70F WCI  19
ROCHESTER/MAYO FAIR      32  26  77 S5        29.70F WCI  28
WINONA         CLOUDY    34  28  80 SE7       29.74F WCI  28
AUSTIN         CLOUDY    28  25  86 S9        29.70F WCI  20
ALBERT LEA     CLOUDY    34  25  69 S8        29.68F WCI  27
DODGE CENTER   CLOUDY    30  25  80 S12       29.68F WCI  21
PRESTON        CLOUDY    31  25  79 SW13      29.72F WCI  21
OWATONNA       CLOUDY    32  27  80 S12       29.67F WCI  23
FARIBAULT      CLOUDY    30  27  86 S6        29.67F WCI  24
$$

...ELSEWHERE IN MINNESOTA...


CITY           SKY/WX    TMP DP  RH WIND       PRES   REMARKS
MINNEAPOLIS    MOCLDY    30  27  88 SE6       29.66F WCI  24
INTNL FALLS    CLOUDY    20  16  84 SE7       29.52F WCI  11
DULUTH         CLOUDY    23  22  96 SE8       29.61F WCI  14
RED WING       CLOUDY    30  25  80 SE6       29.69F WCI  24
REDWOOD FALLS  CLOUDY    28  22  78 SE7       29.60F WCI  21
MANKATO        CLOUDY    30  25  81 S9        29.66F WCI  22
WORTHINGTON    CLOUDY    33  24  69 S20       29.61F WCI  21
FAIRMONT       CLOUDY    28  25  88 S10       29.65F WCI  19
$$

...SOUTHWEST WISCONSIN...


CITY           SKY/WX    TMP DP  RH WIND       PRES   REMARKS
LA CROSSE      CLOUDY    33  27  78 S10       29.76F WCI  25
PRAIRIE DU CHI CLOUDY    35  26  67 S5        29.82F WCI  31
BOSCOBEL       CLOUDY    22  19  89 CALM      29.83F
LONE ROCK      CLOUDY    27  23  85 CALM      29.83F
PLATTEVILLE    CLOUDY    29  27  95 S9        29.84F WCI  20
FORT MC COY    CLOUDY    28  24  85 CALM      29.77F
CAMP DOUGLAS   PTCLDY    36  27  69 S7        29.78F WCI  30
MAUSTON-NEW LI CLOUDY    33  26  76 S3        29.77F
VIROQUA        FAIR      30  28  92 S7        29.77F WCI  23
WIS DELLS      CLOUDY    31  26  80 SW5       29.80F WCI  26
$$

...ELSEWHERE IN WISCONSIN...


CITY           SKY/WX    TMP DP  RH WIND       PRES   REMARKS
MILWAUKEE      MOCLDY    32  25  75 SW12      29.88F WCI  23
MADISON        CLOUDY    31  25  78 S8        29.84F WCI  23
GREEN BAY      CLOUDY    30  26  85 S6        29.81S WCI  24
EAU CLAIRE     CLOUDY    22  21  96 CALM      29.72R
BLACK RVR FLS  FAIR      19  19 100 CALM      29.75F
MEDFORD        CLOUDY    23  21  93 CALM      29.71F
WAUSAU         CLOUDY    24  21  88 SE5       29.74F WCI  18
WIS RAPIDS     CLOUDY    27  23  85 S5        29.78S WCI  22
MARSHFIELD     CLOUDY    23  20  88 S5        29.73F WCI  17
RICE LAKE      CLOUDY    24  23  96 SE3       29.70F
$$

...NORTHEAST IOWA...


CITY           SKY/WX    TMP DP  RH WIND       PRES   REMARKS
WATERLOO       CLEAR     31  26  82 S7        29.80F WCI  24
DUBUQUE        CLEAR     29  25  85 S12       29.84F WCI  19
DECORAH        CLOUDY    34  27  75 VRB6G13   29.76F WCI  29
MASON CITY     CLOUDY    29  24  82 S9        29.73F WCI  20
CHARLES CITY   CLOUDY    30  28  93 S9        29.77F WCI  22
OELWEIN        CLOUDY    28  28 100 S10       29.80F WCI  19
$$

...ELSEWHERE IN IOWA...


CITY           SKY/WX    TMP DP  RH WIND       PRES   REMARKS
DES MOINES     PTCLDY    37  28  70 S10       29.81F WCI  30
IOWA CITY      CLEAR     35  27  72 CALM      29.91S
FORT DODGE     CLEAR     33  26  75 S10       29.72F WCI  25
MARSHALLTOWN   CLEAR     35  28  75 S10       29.80F WCI  27
CEDAR RAPIDS   CLEAR     33  28  81 S12       29.85F WCI  24
$$

...NORTHERN ILLINOIS...


CITY           SKY/WX    TMP DP  RH WIND       PRES   REMARKS
CHICAGO-OHARE  PTCLDY    35  24  64 SW17G23   29.94F WCI  25
CHICAGO-MIDWAY PTCLDY    34  25  69 SW12      29.97S WCI  25
MOLINE         PTCLDY    37  26  64 SW5       29.91F WCI  33
ROCKFORD       PTCLDY    31  25  78 S10       29.92F WCI  22
PEORIA         CLOUDY    32  25  75 S12       30.00F WCI  23
$$

NOTE: "FAIR" INDICATES FEW OR NO CLOUDS BELOW 12,000 FEET WITH NO
SIGNIFICANT WEATHER AND/OR OBSTRUCTIONS TO VISIBILITY. WIND
SPEEDS ARE IN MILES-PER-HOUR.




USA.gov is the U.S. government's official web portal to all federal, state and local government web resources and services.